Chicago Midway, IL

11:25 PM CST on November 14, 2019 (GMT -0600)
Chicago-Midway

Weather History for KMDW - September, 2019

Change the Weather History Date:

Sunday, September 1, 2019

  Actual Average Record
Temperature  
Mean Temperature 68 °F 72 °F  
Max Temperature 73 °F 80 °F 101 °F (1953)
Min Temperature 62 °F 63 °F 45 °F (1949)
Degree Days  
Heating Degree Days 0 1  
Month to date heating degree days 0 1  
Since 1 July heating degree days 0 6  
Cooling Degree Days 3 7  
Month to date cooling degree days 3 7  
Year to date cooling degree days 921 917  
Growing Degree Days 17 (Base 50)    
Moisture  
Dew Point 61 °F    
Average Humidity 79    
Maximum Humidity 97    
Minimum Humidity 66    
Precipitation  
Precipitation 0.67 in 0.12 in 2.92 in (1977)
Month to date precipitation 0.67 0.12  
Year to date precipitation 30.58 26.67  
Sea Level Pressure  
Sea Level Pressure 30.11 in    
Wind  
Wind Speed 4 mph (East)    
Max Wind Speed 14 mph    
Max Gust Speed 20 mph    
Visibility 9 miles    
Events Rain , Thunderstorm    
T = Trace of Precipitation, MM = Missing Value Source: NWS Daily Summary

Daily Weather History Graph

Daily Weather History Graph

Search for Another Location

Airport or City:

Astronomy

Sep. 01, 2019 Rise Set
Actual Time 6:16 AM CDT 7:24 PM CDT
Civil Twilight 5:47 AM CDT 7:53 PM CDT
Nautical Twilight 5:13 AM CDT 8:27 PM CDT
Astronomical Twilight 4:37 AM CDT 9:03 PM CDT
Moon 8:48 AM CDT (9/1) 9:09 PM CDT (9/1)
Length of Visible Light 14h 05m
Length of Day
13h 08m
Waxing Crescent, 8% of the Moon is Illuminated
Sep 1
Waxing Crescent
Sep 5
First Quarter
Sep 13
Full
Sep 21
Last Quarter
Sep 28
New

Hourly Weather History & Observations

Time (CDT) Temp. Dew Point Humidity Pressure Visibility Wind Dir Wind Speed Gust Speed Precip Events Conditions
12:53 AM 66.0 °F 62.1 °F 87% 30.19 in 6.0 mi East 6.9 mph - 0.05 in Rain Light Rain
1:53 AM 64.9 °F 62.1 °F 90% 30.18 in 4.0 mi East 11.5 mph - 0.11 in Rain Rain
2:53 AM 63.0 °F 62.1 °F 97% 30.15 in 5.0 mi East 13.8 mph - 0.19 in Rain Light Rain
3:39 AM 63.0 °F 61.0 °F 93% 30.19 in 6.0 mi East 8.1 mph - 0.02 in Rain , Thunderstorm Light Thunderstorms and Rain
3:53 AM 63.0 °F 61.0 °F 93% 30.17 in 3.0 mi East 6.9 mph - 0.09 in Rain , Thunderstorm Thunderstorms and Rain
4:09 AM 62.1 °F 60.1 °F 93% 30.18 in 2.0 mi East 8.1 mph - 0.15 in Rain , Thunderstorm Thunderstorms and Rain
4:19 AM 62.1 °F 60.1 °F 93% 30.18 in 3.0 mi East 8.1 mph - 0.18 in Rain Rain
4:53 AM 62.1 °F 60.1 °F 93% 30.16 in 6.0 mi East 8.1 mph - 0.23 in Rain Light Rain
5:53 AM 62.1 °F 60.1 °F 93% 30.14 in 10.0 mi East 8.1 mph - 0.05 in   Overcast
6:53 AM 62.1 °F 59.0 °F 90% 30.12 in 10.0 mi East 9.2 mph - 0.00 in   Mostly Cloudy
7:53 AM 63.0 °F 60.1 °F 90% 30.13 in 10.0 mi ESE 4.6 mph - N/A   Mostly Cloudy
8:53 AM 64.9 °F 59.0 °F 81% 30.14 in 10.0 mi Calm Calm - N/A   Overcast
9:53 AM 66.0 °F 57.9 °F 75% 30.13 in 10.0 mi ESE 8.1 mph - N/A   Overcast
10:53 AM 70.0 °F 60.1 °F 71% 30.12 in 10.0 mi South 5.8 mph - N/A   Mostly Cloudy
11:53 AM 71.1 °F 61.0 °F 70% 30.11 in 10.0 mi SSE 3.5 mph - N/A   Overcast
12:11 PM 72.0 °F 61.0 °F 68% 30.12 in 10.0 mi Calm Calm - N/A   Overcast
12:40 PM 72.0 °F 61.0 °F 68% 30.11 in 10.0 mi Variable 3.5 mph - N/A   Overcast
12:53 PM 72.0 °F 61.0 °F 68% 30.09 in 10.0 mi SSW 4.6 mph - N/A   Overcast
1:27 PM 72.0 °F 61.0 °F 68% 30.10 in 10.0 mi SSW 3.5 mph - N/A   Overcast
1:53 PM 70.0 °F 62.1 °F 76% 30.08 in 10.0 mi West 4.6 mph - N/A   Overcast
2:53 PM 71.1 °F 62.1 °F 73% 30.06 in 10.0 mi SW 4.6 mph - N/A   Overcast
3:53 PM 71.1 °F 62.1 °F 73% 30.06 in 10.0 mi Calm Calm - N/A   Overcast
4:53 PM 71.1 °F 63.0 °F 75% 30.05 in 10.0 mi Calm Calm - N/A   Overcast
5:53 PM 71.1 °F 63.0 °F 75% 30.05 in 10.0 mi Calm Calm - N/A   Overcast
6:38 PM 70.0 °F 62.1 °F 76% 30.06 in 10.0 mi ENE 5.8 mph - N/A   Mostly Cloudy
6:53 PM 70.0 °F 62.1 °F 76% 30.05 in 10.0 mi East 4.6 mph - N/A   Mostly Cloudy
7:28 PM 69.1 °F 61.0 °F 75% 30.06 in 10.0 mi East 3.5 mph - N/A   Overcast
7:53 PM 70.0 °F 61.0 °F 73% 30.05 in 10.0 mi ENE 3.5 mph - N/A   Overcast
8:53 PM 69.1 °F 61.0 °F 75% 30.05 in 10.0 mi NNE 3.5 mph - N/A   Mostly Cloudy
9:53 PM 68.0 °F 61.0 °F 78% 30.06 in 10.0 mi Calm Calm - N/A   Mostly Cloudy
10:27 PM 69.1 °F 61.0 °F 75% 30.08 in 10.0 mi North 3.5 mph - N/A   Mostly Cloudy
10:53 PM 68.0 °F 61.0 °F 78% 30.06 in 10.0 mi Calm Calm - N/A   Scattered Clouds
11:53 PM 66.9 °F 61.0 °F 81% 30.06 in 10.0 mi Calm Calm - N/A   Partly Cloudy